Location: Unspecified
(40.7945°N, 0.0000°E)
Time: 16:41:17
(UTC+00:00)

TIGRISAT - Pass Details

Date: 24 August 2019
Orbit: 605 x 690 km, 97.7° (Epoch: 17 September)

Event Time Altitude Azimuth Distance (km) Brightness Sun altitude
Rises 21:45:04 0° 1° (N) 3,030 ? -29.3°
Reaches altitude 10° 21:47:34 10° 349° (N) 2,098 ? -29.6°
Maximum altitude 21:51:26 28° 292° (WNW) 1,239 ? -30.1°
Enters shadow 21:52:45 24° 263° (W) 1,356 ? -30.2°
